Mobile, AL

8:26 PM CDT on May 25, 2017 (GMT -0500)
Mobile Regional

Weather History for KMOB - August, 2012

Change the Weather History Date:

Sunday, August 26, 2012

  Actual Average Record
Temperature  
Mean Temperature 81 °F 81 °F  
Max Temperature 91 °F 90 °F 100 °F (2000)
Min Temperature 71 °F 72 °F 63 °F (2015)
Cooling Degree Days 16 16  
Month to date cooling degree days 426 439  
Year to date cooling degree days 2110 1850  
Since 1 June cooling degree days 1404 1405  
Growing Degree Days 31 (Base 50)    
Moisture  
Dew Point 68 °F    
Average Humidity 69    
Maximum Humidity 93    
Minimum Humidity 44    
Precipitation  
Precipitation 0.00 in 0.19 in 2.47 in (1950)
Month to date precipitation 3.27 6.06  
Year to date precipitation 50.02 46.26  
Sea Level Pressure  
Sea Level Pressure 30.04 in    
Wind  
Wind Speed 6 mph (NE)    
Max Wind Speed 13 mph    
Max Gust Speed 22 mph    
Visibility 10 miles    
Events      
T = Trace of Precipitation, MM = Missing Value Source: NWS Daily Summary

Daily Weather History Graph

Daily Weather History Graph

Search for Another Location

Airport or City:

Trip Planner

Search our weather history database for the weather conditions in past years. The results will help you decide how hot, cold, wet, or windy it might be!

Date:

Astronomy

Aug. 26, 2012 Rise Set
Actual Time 6:26 AM CDT 7:22 PM CDT
Civil Twilight 6:01 AM CDT 7:47 PM CDT
Nautical Twilight 5:32 AM CDT 8:16 PM CDT
Astronomical Twilight 5:02 AM CDT 8:46 PM CDT
Moon 3:39 PM CDT 1:20 AM CDT
Length of Visible Light 13h 45m
Length of Day
12h 56m
Waxing Gibbous, 73% of the Moon is Illuminated
Aug 26
Waxing Gibbous
Aug 31
Full
Sep 8
Last Quarter
Sep 15
New
Sep 22
First Quarter

Hourly Weather History & Observations

Time (CDT) Temp. Heat Index Dew Point Humidity Pressure Visibility Wind Dir Wind Speed Gust Speed Precip Events Conditions
12:56 AM 73.0 °F - 70.0 °F 90% 30.04 in 10.0 mi Calm Calm - N/A   Scattered Clouds
1:56 AM 73.0 °F - 69.1 °F 87% 30.02 in 10.0 mi North 3.5 mph - N/A   Partly Cloudy
2:56 AM 73.0 °F - 70.0 °F 90% 30.03 in 10.0 mi NNE 4.6 mph - N/A   Scattered Clouds
3:56 AM 73.0 °F - 69.1 °F 87% 30.02 in 10.0 mi NE 5.8 mph - N/A   Partly Cloudy
4:56 AM 72.0 °F - 69.1 °F 91% 30.03 in 10.0 mi NNE 5.8 mph - N/A   Scattered Clouds
5:56 AM 72.0 °F - 69.1 °F 91% 30.05 in 9.0 mi NNE 3.5 mph - N/A   Partly Cloudy
6:56 AM 73.0 °F - 70.0 °F 90% 30.08 in 8.0 mi NE 5.8 mph - N/A   Scattered Clouds
7:56 AM 75.9 °F - 70.0 °F 82% 30.09 in 10.0 mi NE 9.2 mph - N/A   Scattered Clouds
8:56 AM 80.1 °F 83.6 °F 71.1 °F 74% 30.10 in 10.0 mi ENE 8.1 mph - N/A   Scattered Clouds
9:56 AM 82.9 °F 86.5 °F 69.1 °F 63% 30.11 in 10.0 mi ENE 6.9 mph - N/A   Scattered Clouds
10:56 AM 84.9 °F 88.8 °F 69.1 °F 59% 30.11 in 10.0 mi East 8.1 mph - N/A   Scattered Clouds
11:56 AM 87.1 °F 90.6 °F 68.0 °F 53% 30.09 in 10.0 mi East 9.2 mph - N/A   Scattered Clouds
12:56 PM 88.0 °F 90.7 °F 66.9 °F 49% 30.07 in 10.0 mi NNE 6.9 mph - N/A   Scattered Clouds
1:56 PM 88.0 °F 90.3 °F 66.0 °F 48% 30.05 in 10.0 mi NE 8.1 mph - N/A   Mostly Cloudy
2:56 PM 90.0 °F 91.3 °F 64.0 °F 42% 30.03 in 10.0 mi Variable 3.5 mph - N/A   Scattered Clouds
3:56 PM 91.0 °F 93.8 °F 66.0 °F 44% 30.01 in 10.0 mi Variable 6.9 mph - N/A   Mostly Cloudy
4:56 PM 90.0 °F 91.3 °F 64.0 °F 42% 30.00 in 10.0 mi NE 9.2 mph - N/A   Mostly Cloudy
5:56 PM 89.1 °F 91.3 °F 66.0 °F 46% 29.99 in 10.0 mi NE 6.9 mph - N/A   Mostly Cloudy
6:56 PM 84.9 °F 86.6 °F 64.9 °F 51% 29.99 in 10.0 mi NE 5.8 mph - N/A   Mostly Cloudy
7:56 PM 80.1 °F 81.9 °F 64.9 °F 60% 29.99 in 10.0 mi NE 5.8 mph - N/A   Mostly Cloudy
8:56 PM 78.1 °F - 66.9 °F 68% 30.01 in 10.0 mi NE 4.6 mph - N/A   Scattered Clouds
9:56 PM 75.9 °F - 66.9 °F 74% 30.01 in 10.0 mi NNE 4.6 mph - N/A   Scattered Clouds
10:56 PM 73.9 °F - 66.0 °F 76% 30.01 in 10.0 mi NNE 4.6 mph - N/A   Scattered Clouds
11:56 PM 73.0 °F - 64.9 °F 76% 30.00 in 10.0 mi Calm Calm - N/A   Partly Cloudy